TimeCDT,TemperatureF,Dew PointF,Humidity,Sea Level PressureIn,VisibilityMPH,Wind Direction,Wind SpeedMPH,Gust SpeedMPH,PrecipitationIn,Events,Conditions,WindDirDegrees,DateUTC
12:15 AM,35.6,26.6,70,29.94,10.0,West,15.0,25.3,N/A,,Overcast,280,2012-10-06 05:15:00
12:35 AM,35.1,27.1,73,29.94,10.0,WNW,20.7,24.2,N/A,,Overcast,290,2012-10-06 05:35:00
12:55 AM,35.1,27.1,73,29.94,10.0,WNW,13.8,23.0,N/A,,Overcast,290,2012-10-06 05:55:00
1:15 AM,34.9,27.3,74,29.94,10.0,WNW,18.4,23.0,N/A,,Overcast,300,2012-10-06 06:15:00
1:35 AM,34.7,27.9,76,29.94,10.0,WNW,16.1,21.9,N/A,,Overcast,300,2012-10-06 06:35:00
1:55 AM,34.7,28.8,79,29.94,10.0,WNW,15.0,21.9,N/A,,Overcast,290,2012-10-06 06:55:00
2:15 AM,34.9,28.4,77,29.94,10.0,WNW,18.4,24.2,N/A,,Overcast,300,2012-10-06 07:15:00
2:35 AM,34.2,29.5,83,29.94,7.0,WNW,13.8,20.7,N/A,Snow,Light Snow,300,2012-10-06 07:35:00
2:55 AM,33.8,29.8,85,29.94,10.0,WNW,17.3,21.9,N/A,,Overcast,290,2012-10-06 07:55:00
3:15 AM,32.9,29.8,88,29.94,10.0,WNW,15.0,20.7,N/A,,Overcast,290,2012-10-06 08:15:00
3:35 AM,32.9,30.2,90,29.95,10.0,WNW,12.7,17.3,N/A,,Overcast,300,2012-10-06 08:35:00
3:55 AM,33.1,30.4,90,29.95,10.0,WNW,11.5,-,N/A,,Overcast,290,2012-10-06 08:55:00
4:15 AM,33.1,30.2,89,29.95,10.0,WNW,13.8,21.9,N/A,,Overcast,290,2012-10-06 09:15:00
4:35 AM,33.1,30.0,89,29.96,10.0,WNW,10.4,17.3,N/A,,Overcast,290,2012-10-06 09:35:00
4:55 AM,33.1,29.7,87,29.96,10.0,WNW,10.4,-,N/A,,Overcast,300,2012-10-06 09:55:00
5:15 AM,32.9,29.7,88,29.97,10.0,WNW,12.7,-,N/A,,Overcast,300,2012-10-06 10:15:00
5:35 AM,32.9,29.7,88,29.98,7.0,WNW,12.7,16.1,N/A,,Overcast,300,2012-10-06 10:35:00
5:55 AM,32.0,29.8,92,29.98,7.0,WNW,11.5,-,N/A,,Overcast,290,2012-10-06 10:55:00
6:15 AM,31.8,30.2,94,29.99,2.5,WNW,8.1,-,N/A,Snow,Light Snow,300,2012-10-06 11:15:00
6:35 AM,32.0,30.7,95,30.00,3.0,WNW,8.1,-,N/A,Snow,Light Snow,290,2012-10-06 11:35:00
6:55 AM,32.0,30.6,94,30.01,5.0,WNW,8.1,-,N/A,,Overcast,300,2012-10-06 11:55:00
7:15 AM,31.5,30.2,95,30.02,10.0,NW,5.8,-,N/A,,Overcast,310,2012-10-06 12:15:00
7:35 AM,31.6,30.2,94,30.03,10.0,NW,6.9,-,N/A,,Overcast,310,2012-10-06 12:35:00
7:55 AM,31.8,29.3,90,30.03,10.0,NW,6.9,-,N/A,,Mostly Cloudy,320,2012-10-06 12:55:00
8:15 AM,32.7,30.2,90,30.05,10.0,NW,8.1,-,N/A,,Scattered Clouds,310,2012-10-06 13:15:00
8:35 AM,32.5,29.8,90,30.05,10.0,NW,9.2,-,N/A,,Mostly Cloudy,320,2012-10-06 13:35:00
8:55 AM,33.4,29.8,87,30.06,10.0,WNW,10.4,-,N/A,,Mostly Cloudy,300,2012-10-06 13:55:00
9:15 AM,34.9,30.0,82,30.06,10.0,NW,9.2,-,N/A,,Overcast,310,2012-10-06 14:15:00
9:35 AM,34.5,29.1,81,30.07,10.0,WNW,10.4,-,N/A,,Overcast,300,2012-10-06 14:35:00
9:55 AM,36.9,28.2,71,30.08,10.0,NW,12.7,20.7,N/A,,Mostly Cloudy,320,2012-10-06 14:55:00
10:15 AM,35.2,29.1,78,30.08,4.0,NW,8.1,19.6,N/A,,Haze,320,2012-10-06 15:15:00
10:35 AM,36.3,30.0,78,30.09,4.0,NW,12.7,17.3,N/A,,Haze,320,2012-10-06 15:35:00
10:55 AM,37.2,32.5,83,30.09,10.0,NW,9.2,-,N/A,,Mostly Cloudy,320,2012-10-06 15:55:00
11:15 AM,39.4,30.7,71,30.09,10.0,NW,15.0,19.6,N/A,,Mostly Cloudy,310,2012-10-06 16:15:00
11:35 AM,36.7,30.0,77,30.10,10.0,NNW,11.5,-,N/A,,Overcast,330,2012-10-06 16:35:00
11:55 AM,37.9,27.9,67,30.10,10.0,NNW,11.5,18.4,N/A,,Overcast,340,2012-10-06 16:55:00
12:15 PM,39.7,29.3,66,30.10,10.0,NNW,12.7,16.1,N/A,,Overcast,330,2012-10-06 17:15:00
12:35 PM,38.3,28.8,69,30.10,10.0,NNW,11.5,15.0,N/A,,Overcast,330,2012-10-06 17:35:00
12:55 PM,40.1,25.9,57,30.10,10.0,NW,15.0,18.4,N/A,,Overcast,310,2012-10-06 17:55:00
1:15 PM,40.1,27.7,61,30.10,10.0,NW,12.7,18.4,N/A,,Overcast,310,2012-10-06 18:15:00
1:35 PM,38.7,26.4,61,30.10,10.0,NNW,13.8,24.2,N/A,,Overcast,330,2012-10-06 18:35:00
1:55 PM,38.7,25.3,59,30.10,10.0,NNW,11.5,-,N/A,,Overcast,330,2012-10-06 18:55:00
2:15 PM,38.7,24.4,57,30.11,10.0,NNW,13.8,19.6,N/A,,Overcast,340,2012-10-06 19:15:00
2:35 PM,38.3,24.1,57,30.11,10.0,NW,10.4,-,N/A,,Overcast,320,2012-10-06 19:35:00
2:55 PM,39.7,23.5,52,30.11,10.0,NNW,11.5,-,N/A,,Overcast,330,2012-10-06 19:55:00
3:15 PM,39.9,22.3,49,30.10,10.0,NNW,12.7,18.4,N/A,,Overcast,340,2012-10-06 20:15:00
3:35 PM,39.6,22.1,50,30.10,10.0,NNW,15.0,-,N/A,,Overcast,330,2012-10-06 20:35:00
3:55 PM,39.6,21.9,49,30.10,10.0,NNW,12.7,17.3,N/A,,Overcast,340,2012-10-06 20:55:00
4:15 PM,38.3,22.3,53,30.11,10.0,NW,10.4,-,N/A,,Mostly Cloudy,320,2012-10-06 21:15:00
4:35 PM,39.4,22.6,51,30.11,10.0,NNW,11.5,-,N/A,,Mostly Cloudy,330,2012-10-06 21:35:00
4:55 PM,39.2,21.9,50,30.11,10.0,NNW,10.4,-,N/A,,Overcast,340,2012-10-06 21:55:00
5:15 PM,38.5,21.6,51,30.11,10.0,NNW,11.5,-,N/A,,Overcast,330,2012-10-06 22:15:00
5:35 PM,38.3,20.8,50,30.12,10.0,NNW,11.5,17.3,N/A,,Overcast,340,2012-10-06 22:35:00
6:15 PM,36.7,23.4,59,30.13,10.0,NNW,13.8,-,N/A,,Overcast,340,2012-10-06 23:15:00
6:35 PM,36.5,21.7,55,30.14,10.0,NNW,10.4,-,N/A,,Overcast,330,2012-10-06 23:35:00
6:55 PM,35.8,21.6,56,30.14,10.0,NNW,6.9,-,N/A,,Overcast,330,2012-10-06 23:55:00
7:15 PM,35.6,22.1,58,30.14,10.0,NW,5.8,-,N/A,,Overcast,320,2012-10-07 00:15:00
7:35 PM,35.6,23.2,61,30.15,10.0,WNW,5.8,-,N/A,,Overcast,300,2012-10-07 00:35:00
7:55 PM,35.6,22.8,60,30.15,10.0,NW,5.8,-,N/A,,Overcast,310,2012-10-07 00:55:00
8:15 PM,34.9,22.8,61,30.16,10.0,WNW,4.6,-,N/A,,Overcast,300,2012-10-07 01:15:00
8:35 PM,34.7,23.0,62,30.16,10.0,WNW,4.6,-,N/A,,Overcast,300,2012-10-07 01:35:00
8:55 PM,34.7,23.2,63,30.16,10.0,WNW,5.8,-,N/A,,Overcast,300,2012-10-07 01:55:00
9:15 PM,34.7,23.5,64,30.16,10.0,WNW,4.6,-,N/A,,Overcast,300,2012-10-07 02:15:00
9:35 PM,34.7,23.7,64,30.16,10.0,WNW,3.5,-,N/A,,Overcast,290,2012-10-07 02:35:00
9:55 PM,34.7,23.9,65,30.16,10.0,WNW,5.8,-,N/A,,Overcast,290,2012-10-07 02:55:00
10:15 PM,34.7,23.9,65,30.16,10.0,WNW,4.6,-,N/A,,Overcast,300,2012-10-07 03:15:00
10:35 PM,34.3,24.4,67,30.16,10.0,WNW,4.6,-,N/A,,Overcast,290,2012-10-07 03:35:00
10:55 PM,34.0,24.4,68,30.16,10.0,WNW,4.6,-,N/A,,Overcast,290,2012-10-07 03:55:00
11:15 PM,34.0,24.4,68,30.16,10.0,WNW,4.6,-,N/A,,Overcast,290,2012-10-07 04:15:00
11:35 PM,33.8,24.6,69,30.15,10.0,WNW,4.6,-,N/A,,Overcast,290,2012-10-07 04:35:00
11:55 PM,33.8,24.8,70,30.15,10.0,WNW,4.6,-,N/A,,Overcast,300,2012-10-07 04:55:00